User: anonymous   Login
Location: Unspecified
(0.0000°N, 0.0000°E)
Time: 10:25:03
(UTC+00:00)
Language:

GOMX 1 - Orbit

View from above orbital plane
View from above orbital plane
View from above satellite
View from above satellite

Ground track
Ground track

The orbit data is extracted from the following two-line orbital elements,

1 39423U 13066H   21017.18850204  .00000080  00000-0  26161-4 0  9994
2 39423  97.8011 290.0588 0174481 309.4322  49.1527 14.53178740379466
Epoch (UTC): 17 January 2021 04:31:26
Eccentricity: 0.0174481
inclination: 97.8011°
perigee height: 591 km
apogee height: 839 km
right ascension of ascending node: 290.0588°
argument of perigee: 309.4322°
revolutions per day: 14.53178740
mean anomaly at epoch: 49.1527°
orbit number at epoch: 37946

The dashed part of the orbit path shows where the satellite is in the earth's shadow,  

DLR